Waarnemingen

Advertentie
Mijn weer
Chievres, België (6432): temperatuur & dauwpunt: 17.10.2018 14:00:00 - 23.10.2018 14:00:00 (CEST)Chievres, België (6432): windsnelheid & windstoten: 17.10.2018 14:00:00 - 23.10.2018 14:00:00 (CEST)Chievres, België (6432): windrichting: 17.10.2018 14:00:00 - 23.10.2018 14:00:00 (CEST)Chievres, België (6432): luchtdruk: 17.10.2018 14:00:00 - 23.10.2018 14:00:00 (CEST)Chievres, België (6432): zicht: 17.10.2018 14:00:00 - 23.10.2018 14:00:00 (CEST)
Datum & Tijd tt [°C] td [°C] ff [km/u] ff [kn] fx [km/u] fx [kn] dd ppp [hPa] vv [km]
23.10.2018 14:00:00 14,0 5,5 22 12 - - W 1028,4 20
23.10.2018 13:00:00 12,1 6,4 18 10 29 16 W 1029,2 20
23.10.2018 12:00:00 10,9 6,4 22 12 32 18 WZW 1029,5 20
23.10.2018 11:00:00 9,4 6,4 18 10 - - WZW 1030,2 18
23.10.2018 10:00:00 7,5 5,2 18 10 29 16 ZW 1030,5 18
23.10.2018 09:00:00 6,5 4,4 14 8 25 14 ZW 1031,2 17
23.10.2018 08:00:00 6,0 4,2 14 8 - - WZW 1031,5 16
23.10.2018 07:00:00 5,8 4,2 11 6 18 10 WZW 1032,0 15
23.10.2018 06:00:00 4,7 3,7 11 6 14 8 ZW 1032,5 12
23.10.2018 05:00:00 3,4 2,7 11 6 - - ZZW 1032,9 8
23.10.2018 04:00:00 2,7 1,9 7 4 11 6 ZZW 1034,0 9
23.10.2018 03:00:00 2,9 2,1 7 4 7 4 ZZW 1034,9 11
23.10.2018 02:00:00 2,8 2,0 4 2 - - N 1035,7 12
23.10.2018 01:00:00 2,5 1,8 7 4 7 4 ZW 1035,7 7
23.10.2018 00:00:00 4,8 4,1 4 2 4 2 N 1036,2 9
22.10.2018 23:00:00 5,5 4,4 4 2 - - N 1036,0 16
22.10.2018 22:00:00 7,4 4,5 7 4 11 6 NNW 1036,0 19
22.10.2018 21:00:00 7,5 4,7 7 4 14 8 NNW 1035,7 19
22.10.2018 20:00:00 8,4 5,0 11 6 - - NNW 1035,2 20
22.10.2018 19:00:00 11,0 5,7 11 6 22 12 N 1034,9 20
22.10.2018 18:00:00 12,8 6,6 14 8 25 14 N 1034,4 20
22.10.2018 17:00:00 14,3 5,5 11 6 - - N 1033,7 20
22.10.2018 16:00:00 14,5 5,3 22 12 36 19 NNO 1033,9 20
22.10.2018 15:00:00 15,1 7,0 22 12 32 18 N 1033,5 20
22.10.2018 14:00:00 14,5 7,5 22 12 - - N 1033,5 20
22.10.2018 13:00:00 14,0 8,9 25 14 36 19 N 1033,7 20
22.10.2018 12:00:00 13,1 10,2 18 10 32 18 NNO 1033,4 20
22.10.2018 11:00:00 - - - - - - - - -
22.10.2018 10:00:00 - - - - - - - - -
22.10.2018 09:00:00 12,5 12,2 18 10 29 16 N 1031,0 13
22.10.2018 08:00:00 12,6 12,2 18 10 - - N 1030,0 7
22.10.2018 07:00:00 12,5 12,4 14 8 18 10 N 1029,2 2,1
22.10.2018 06:00:00 9,5 9,2 4 2 4 2 N 1028,7 1,1
22.10.2018 05:00:00 8,8 7,7 4 2 - - N 1028,4 4,2
22.10.2018 04:00:00 7,3 6,8 4 2 4 2 N 1028,4 3,0
22.10.2018 03:00:00 7,0 6,3 4 2 4 2 N 1028,4 3,9
22.10.2018 02:00:00 7,5 7,1 4 2 - - N 1028,2 2,6
22.10.2018 01:00:00 7,8 7,0 2 1 4 2 - 1028,0 3,6
22.10.2018 00:00:00 9,8 8,2 0 0 4 2 N 1028,0 5
21.10.2018 23:00:00 8,3 6,6 4 2 - - N 1028,0 6
21.10.2018 22:00:00 8,6 6,9 4 2 4 2 N 1027,5 6
21.10.2018 21:00:00 9,4 7,4 4 2 0 0 N 1027,2 7
21.10.2018 20:00:00 10,8 7,7 4 2 - - N 1027,2 10
21.10.2018 19:00:00 13,3 8,1 4 2 4 2 N 1027,0 12
21.10.2018 18:00:00 16,2 8,1 4 2 11 6 N 1027,0 13
21.10.2018 17:00:00 16,8 7,7 4 2 - - N 1027,2 13
21.10.2018 16:00:00 17,0 7,1 4 2 7 4 N 1027,7 12
21.10.2018 15:00:00 15,8 7,0 4 2 11 6 N 1028,0 11
21.10.2018 14:00:00 15,5 6,7 4 2 - - N 1028,4 10
21.10.2018 13:00:00 13,7 6,7 4 2 7 4 N 1029,2 7
21.10.2018 12:00:00 12,3 7,1 4 2 4 2 N 1029,7 7
21.10.2018 11:00:00 10,4 6,9 2 1 - - - 1030,0 5
21.10.2018 10:00:00 6,4 5,7 4 2 11 6 N 1030,0 3,8
21.10.2018 09:00:00 3,4 3,1 4 2 7 4 N 1029,9 2,3
21.10.2018 08:00:00 2,7 2,2 7 4 - - OZO 1029,5 2,6
21.10.2018 07:00:00 2,2 1,5 5 3 4 2 OZO 1029,7 3,6
21.10.2018 06:00:00 2,5 1,9 4 2 4 2 N 1030,2 3,9
21.10.2018 05:00:00 2,7 2,5 4 2 - - N 1030,5 1,2
21.10.2018 04:00:00 3,2 2,7 4 2 7 4 N 1030,9 4,2
21.10.2018 03:00:00 3,2 2,4 4 2 0 0 N 1031,2 7
21.10.2018 02:00:00 4,1 3,6 4 2 - - N 1031,2 2,5
21.10.2018 01:00:00 4,3 4,1 2 1 4 2 - 1031,7 3,4
21.10.2018 00:00:00 4,9 4,6 2 1 0 0 - 1031,9 2,5
20.10.2018 23:00:00 5,5 4,5 4 2 - - N 1031,7 10
20.10.2018 22:00:00 6,4 5,1 4 2 4 2 N 1031,7 13
20.10.2018 21:00:00 7,4 4,5 4 2 7 4 N 1031,7 16
20.10.2018 20:00:00 9,6 5,4 4 2 - - N 1031,7 20
20.10.2018 19:00:00 11,3 5,8 7 4 11 6 NNO 1031,4 20
20.10.2018 18:00:00 14,3 6,5 7 4 11 6 ONO 1030,9 20
20.10.2018 17:00:00 14,8 7,1 4 2 - - N 1031,2 17
20.10.2018 16:00:00 14,6 7,2 4 2 11 6 N 1031,4 13
20.10.2018 15:00:00 14,3 7,2 7 4 14 8 N 1031,9 11
20.10.2018 14:00:00 14,5 7,4 4 2 - - N 1032,2 12
20.10.2018 13:00:00 13,4 7,3 7 4 18 10 O 1032,5 12
20.10.2018 12:00:00 12,3 7,5 5 3 11 6 ONO 1032,7 10
20.10.2018 11:00:00 9,6 8,3 4 2 - - N 1032,7 5
20.10.2018 10:00:00 6,9 6,9 4 2 4 2 N 1032,2 3,2
20.10.2018 09:00:00 3,7 3,7 4 2 4 2 N 1031,5 0,1
20.10.2018 08:00:00 3,5 3,2 4 2 - - N 1030,7 0,1
20.10.2018 07:00:00 4,3 4,0 4 2 4 2 N 1030,4 -
20.10.2018 06:00:00 5,0 4,8 4 2 7 4 N 1029,7 0,1
20.10.2018 05:00:00 5,5 4,8 4 2 - - N 1029,5 0,1
20.10.2018 04:00:00 6,5 5,9 4 2 7 4 - 1029,0 1,5
20.10.2018 03:00:00 7,3 6,4 4 2 11 6 N 1028,9 2,0
20.10.2018 02:00:00 7,4 6,4 7 4 - - NNO 1028,7 3,1
20.10.2018 01:00:00 8,6 7,2 4 2 11 6 N 1028,4 5
20.10.2018 00:00:00 8,8 7,6 11 6 14 8 N 1028,2 6
19.10.2018 23:00:00 9,1 7,8 11 6 - - N 1028,0 6
19.10.2018 22:00:00 9,6 7,6 11 6 14 8 N 1027,4 12
19.10.2018 21:00:00 10,7 8,6 4 2 7 4 N 1026,7 6
19.10.2018 20:00:00 11,8 9,3 7 4 - - N 1026,2 6
19.10.2018 19:00:00 12,5 9,7 11 6 14 8 N 1025,5 7
19.10.2018 18:00:00 15,3 10,0 7 4 22 12 NO 1024,7 9
19.10.2018 17:00:00 15,9 10,0 13 7 - - NNO 1024,5 9
19.10.2018 16:00:00 16,1 10,0 7 4 22 12 NNO 1024,5 7
19.10.2018 15:00:00 15,6 9,8 7 4 22 12 NNO 1024,7 6
19.10.2018 14:00:00 15,9 10,5 7 4 - - NO 1024,7 7
19.10.2018 13:00:00 14,1 10,3 4 2 14 8 N 1025,4 6
19.10.2018 12:00:00 13,4 10,2 11 6 14 8 ONO 1025,0 5
19.10.2018 11:00:00 11,8 9,7 7 4 - - NNO 1025,2 7
19.10.2018 10:00:00 11,1 9,5 7 4 14 8 NNO 1025,2 8
19.10.2018 09:00:00 10,2 9,1 7 4 11 6 NNO 1024,9 9
19.10.2018 08:00:00 9,5 8,6 7 4 - - NNO 1024,5 6
19.10.2018 07:00:00 8,7 7,8 9 5 11 6 NNO 1024,5 7
19.10.2018 06:00:00 8,6 7,6 11 6 11 6 NNO 1024,5 9
19.10.2018 05:00:00 8,0 7,0 7 4 - - N 1024,5 10
19.10.2018 04:00:00 7,5 6,4 7 4 7 4 NNO 1024,5 16
19.10.2018 03:00:00 8,6 7,1 4 2 7 4 N 1024,7 19
19.10.2018 02:00:00 9,5 7,8 4 2 - - N 1024,7 20
19.10.2018 01:00:00 9,4 7,7 7 4 11 6 NO 1024,7 20
19.10.2018 00:00:00 10,5 8,4 11 6 14 8 NNO 1025,0 20
18.10.2018 23:00:00 10,3 8,4 11 6 - - NNO 1025,2 20
18.10.2018 22:00:00 11,0 8,8 11 6 14 8 NNO 1025,0 19
18.10.2018 21:00:00 11,6 9,3 11 6 14 8 NNO 1024,7 19
18.10.2018 20:00:00 11,3 8,8 7 4 - - NNO 1024,4 20
18.10.2018 19:00:00 13,3 9,4 11 6 25 14 NNO 1024,0 20
18.10.2018 18:00:00 15,1 9,6 18 10 29 16 NNO 1023,8 20
18.10.2018 17:00:00 16,0 10,4 18 10 - - NNO 1023,8 20
18.10.2018 16:00:00 16,7 10,8 22 12 29 16 N 1024,0 20
18.10.2018 15:00:00 17,0 10,8 18 10 29 16 NNO 1024,2 16
18.10.2018 14:00:00 16,5 10,2 14 8 - - NO 1024,5 20
18.10.2018 13:00:00 15,9 10,4 22 12 32 18 NO 1024,7 20
18.10.2018 12:00:00 14,2 11,4 18 10 32 18 NNO 1025,0 11
18.10.2018 11:00:00 14,4 11,3 18 10 - - NO 1024,5 15
18.10.2018 10:00:00 12,1 11,2 11 6 18 10 NO 1024,2 4,3
18.10.2018 09:00:00 10,1 9,9 7 4 11 6 NO 1024,0 2,1
18.10.2018 08:00:00 9,5 9,1 7 4 - - NO 1023,7 1,8
18.10.2018 07:00:00 10,0 9,5 7 4 11 6 NNO 1023,5 2,5
18.10.2018 06:00:00 10,6 9,9 4 2 11 6 N 1023,3 3,1
18.10.2018 05:00:00 11,1 10,1 4 2 - - N 1023,1 4,5
18.10.2018 04:00:00 12,3 11,0 7 4 14 8 NNO 1023,1 6
18.10.2018 03:00:00 11,7 10,8 4 2 7 4 N 1023,0 6
18.10.2018 02:00:00 11,1 9,9 4 2 - - N 1022,7 7
18.10.2018 01:00:00 12,3 10,7 7 4 14 8 NNO 1022,7 9
18.10.2018 00:00:00 12,6 11,1 7 4 7 4 N 1022,7 10
17.10.2018 23:00:00 11,6 10,0 7 4 - - N 1022,2 11
17.10.2018 22:00:00 12,5 10,5 7 4 14 8 NNO 1021,8 13
17.10.2018 21:00:00 14,1 11,4 11 6 18 10 NNO 1021,2 14
17.10.2018 20:00:00 14,5 12,0 11 6 - - N 1020,7 10
17.10.2018 19:00:00 15,6 11,7 11 6 11 6 N 1020,0 16
17.10.2018 18:00:00 18,3 12,2 7 4 14 8 N 1019,6 20
17.10.2018 17:00:00 18,8 12,1 11 6 - - NNW 1019,6 20
17.10.2018 16:00:00 19,4 12,6 11 6 11 6 N 1019,5 18
17.10.2018 15:00:00 19,1 12,3 5 3 11 6 NW 1019,5 7
17.10.2018 14:00:00 19,1 11,9 4 2 - - N 1019,7 19

tt = temperatuur
td = dauwpunt
ff = windsnelheid
fx = windstoten
dd = windrichting
ppp = luchtdruk
vv = zicht

Weerstations in de omgeving